• In Belgien
  • Länderverzeichnis
  • Für 7 Tage
  • Wassertemperatur
  • Satellitenkarten
  • Wetterkarte
  • Widgets
  • user-avatar
    Anmelden

    Stündliche Wetter Rokford

    Heute, 20 Januar, Samstag

    Zeit Temperatur Niederschläge Wind Luftdruck Luftfeuchtigkeit
    00:00 -1°C° 0 mm 5 m/S 731 mmHg 81%
    01:00 -2°C° 0 mm 4 m/S 731 mmHg 83%
    02:00 -2°C° 0 mm 4 m/S 732 mmHg 86%
    03:00 -2°C° 0 mm 3 m/S 732 mmHg 88%
    04:00 -2°C° 0 mm 3 m/S 732 mmHg 89%
    05:00 -4°C° 0 mm 3 m/S 732 mmHg 90%
    06:00 -3°C° 0 mm 2 m/S 733 mmHg 91%
    07:00 -3°C° 0 mm 2 m/S 733 mmHg 91%
    08:00 -2°C° 0 mm 2 m/S 734 mmHg 91%
    09:00 -2°C° 0 mm 2 m/S 734 mmHg 90%
    10:00 -1°C° 0 mm 2 m/S 735 mmHg 88%
    11:00 +1°C° 0 mm 2 m/S 735 mmHg 85%
    12:00 +2°C° 0 mm 3 m/S 735 mmHg 83%
    13:00 +3°C° 0 mm 2 m/S 735 mmHg 83%
    14:00 +3°C° 0 mm 2 m/S 735 mmHg 83%
    15:00 +3°C° 0 mm 2 m/S 735 mmHg 84%
    16:00 +3°C° 0 mm 2 m/S 735 mmHg 87%
    17:00 +2°C° 0 mm 2 m/S 736 mmHg 90%
    18:00 +1°C° 0 mm 2 m/S 736 mmHg 93%
    19:00 +1°C° 0 mm 2 m/S 736 mmHg 94%
    20:00 +1°C° 0 mm 2 m/S 736 mmHg 95%
    21:00 +1°C° 0 mm 2 m/S 736 mmHg 95%
    22:00 +1°C° 0 mm 2 m/S 736 mmHg 96%
    23:00 +1°C° 0 mm 2 m/S 736 mmHg 96%

    Morgen, 21 Januar, Sonntag

    Zeit Temperatur Niederschläge Wind Luftdruck Luftfeuchtigkeit
    00:00 +2°C° 0 mm 1 m/S 736 mmHg 97%
    01:00 +2°C° 0 mm 1 m/S 736 mmHg 97%
    02:00 +2°C° 0 mm 1 m/S 736 mmHg 97%
    03:00 +2°C° 0 mm 1 m/S 736 mmHg 98%
    04:00 +2°C° 0,1 mm 1 m/S 736 mmHg 98%
    05:00 +2°C° 0,1 mm 1 m/S 736 mmHg 98%
    06:00 +3°C° 0,1 mm 1 m/S 736 mmHg 98%
    07:00 +2°C° 0,1 mm 2 m/S 736 mmHg 98%
    08:00 +2°C° 0,1 mm 2 m/S 736 mmHg 98%
    09:00 +2°C° 0,1 mm 2 m/S 736 mmHg 98%
    10:00 +2°C° 0,2 mm 2 m/S 736 mmHg 98%
    11:00 +2°C° 0,2 mm 2 m/S 736 mmHg 98%
    12:00 +2°C° 0,2 mm 2 m/S 736 mmHg 98%
    13:00 +2°C° 0,2 mm 2 m/S 735 mmHg 98%
    14:00 +2°C° 0,2 mm 2 m/S 735 mmHg 98%
    15:00 +3°C° 0,2 mm 2 m/S 734 mmHg 98%
    16:00 +3°C° 0,1 mm 2 m/S 734 mmHg 98%
    17:00 +2°C° 0,1 mm 3 m/S 734 mmHg 98%
    18:00 +2°C° 0,1 mm 3 m/S 735 mmHg 98%
    19:00 +2°C° 0,2 mm 3 m/S 734 mmHg 98%
    20:00 +2°C° 0,2 mm 3 m/S 734 mmHg 98%
    21:00 +2°C° 0,2 mm 3 m/S 734 mmHg 98%
    22:00 +2°C° 0,4 mm 3 m/S 733 mmHg 98%
    23:00 +1°C° 0,4 mm 4 m/S 733 mmHg 98%

    übermorgen, 22 Januar, Montag

    Zeit Temperatur Niederschläge Wind Luftdruck Luftfeuchtigkeit
    00:00 +1°C° 0,4 mm 4 m/S 732 mmHg 98%
    01:00 +3°C° 0,8 mm 4 m/S 731 mmHg 98%
    02:00 +3°C° 0,8 mm 4 m/S 730 mmHg 98%
    03:00 +3°C° 0,8 mm 4 m/S 730 mmHg 98%
    04:00 +3°C° 2,2 mm 5 m/S 729 mmHg 97%
    05:00 +3°C° 2,2 mm 6 m/S 728 mmHg 96%
    06:00 +3°C° 2,2 mm 7 m/S 727 mmHg 96%
    07:00 +4°C° 1 mm 6 m/S 727 mmHg 96%
    08:00 +5°C° 1 mm 5 m/S 726 mmHg 96%
    09:00 +5°C° 1 mm 5 m/S 726 mmHg 97%
    10:00 +6°C° 0,1 mm 5 m/S 725 mmHg 95%
    11:00 +7°C° 0,1 mm 4 m/S 725 mmHg 92%
    12:00 +7°C° 0,1 mm 4 m/S 724 mmHg 90%
    13:00 +8°C° 0,3 mm 4 m/S 724 mmHg 85%
    14:00 +8°C° 0,3 mm 4 m/S 723 mmHg 81%
    15:00 +10°C° 0,3 mm 3 m/S 723 mmHg 76%
    16:00 +8°C° 0,4 mm 3 m/S 723 mmHg 79%
    17:00 +7°C° 0,4 mm 3 m/S 723 mmHg 82%
    18:00 +4°C° 0,4 mm 3 m/S 722 mmHg 85%
    19:00 +4°C° 0,1 mm 3 m/S 722 mmHg 88%
    20:00 +3°C° 0,1 mm 3 m/S 722 mmHg 90%
    21:00 +3°C° 0,1 mm 2 m/S 722 mmHg 92%
    22:00 +2°C° 0,7 mm 3 m/S 722 mmHg 93%
    23:00 +2°C° 0,7 mm 3 m/S 722 mmHg 94%

    23 Januar, Dienstag

    Zeit Temperatur Niederschläge Wind Luftdruck Luftfeuchtigkeit
    00:00 +1°C° 0,7 mm 4 m/S 722 mmHg 94%
    01:00 -1°C° 0,8 mm 6 m/S 723 mmHg 93%
    02:00 -2°C° 0,8 mm 7 m/S 724 mmHg 91%
    03:00 -3°C° 0,8 mm 9 m/S 724 mmHg 89%
    04:00 -4°C° 0,3 mm 9 m/S 725 mmHg 88%
    05:00 -5°C° 0,3 mm 9 m/S 726 mmHg 87%
    06:00 -5°C° 0,3 mm 9 m/S 727 mmHg 85%
    07:00 -6°C° 0,1 mm 9 m/S 729 mmHg 84%
    08:00 -6°C° 0,1 mm 8 m/S 730 mmHg 83%
    09:00 -7°C° 0,1 mm 8 m/S 732 mmHg 81%
    10:00 -7°C° 0 mm 8 m/S 733 mmHg 80%
    11:00 -6°C° 0 mm 8 m/S 734 mmHg 78%
    12:00 -6°C° 0 mm 8 m/S 734 mmHg 77%
    13:00 -6°C° 0 mm 8 m/S 735 mmHg 76%
    14:00 -6°C° 0 mm 7 m/S 736 mmHg 76%
    15:00 -6°C° 0 mm 7 m/S 736 mmHg 76%
    16:00 -6°C° 0 mm 6 m/S 737 mmHg 77%
    17:00 -6°C° 0 mm 6 m/S 738 mmHg 78%
    18:00 -7°C° 0 mm 5 m/S 739 mmHg 79%
    19:00 -7°C° 0 mm 5 m/S 739 mmHg 79%
    20:00 -8°C° 0 mm 5 m/S 740 mmHg 79%
    21:00 -8°C° 0 mm 5 m/S 741 mmHg 79%
    22:00 -8°C° 0 mm 5 m/S 741 mmHg 79%
    23:00 -10°C° 0 mm 5 m/S 741 mmHg 78%

    24 Januar, Mittwoch

    Zeit Temperatur Niederschläge Wind Luftdruck Luftfeuchtigkeit
    00:00 -10°C° 0 mm 5 m/S 742 mmHg 78%
    01:00 -9°C° 0 mm 4 m/S 742 mmHg 78%
    02:00 -9°C° 0 mm 4 m/S 743 mmHg 78%
    03:00 -9°C° 0 mm 4 m/S 743 mmHg 78%
    04:00 -10°C° 0 mm 4 m/S 744 mmHg 78%
    05:00 -9°C° 0 mm 3 m/S 744 mmHg 79%
    06:00 -9°C° 0 mm 3 m/S 745 mmHg 80%
    07:00 -9°C° 0 mm 3 m/S 745 mmHg 79%
    08:00 -9°C° 0 mm 3 m/S 746 mmHg 78%
    09:00 -9°C° 0 mm 3 m/S 746 mmHg 78%
    10:00 -7°C° 0 mm 2 m/S 747 mmHg 72%
    11:00 -6°C° 0 mm 2 m/S 747 mmHg 67%
    12:00 -5°C° 0 mm 2 m/S 747 mmHg 62%
    13:00 -5°C° 0 mm 2 m/S 746 mmHg 62%
    14:00 -5°C° 0 mm 2 m/S 746 mmHg 61%
    15:00 -4°C° 0 mm 2 m/S 746 mmHg 61%
    16:00 -5°C° 0 mm 2 m/S 747 mmHg 65%
    17:00 -6°C° 0 mm 2 m/S 747 mmHg 70%
    18:00 -4°C° 0 mm 1 m/S 747 mmHg 75%
    19:00 -4°C° 0 mm 1 m/S 747 mmHg 76%
    20:00 -6°C° 0 mm 1 m/S 748 mmHg 77%
    21:00 -6°C° 0 mm 0 m/S 748 mmHg 78%
    22:00 -6°C° 0 mm 0 m/S 748 mmHg 78%
    23:00 -6°C° 0 mm 1 m/S 748 mmHg 78%

    25 Januar, Donnerstag

    Zeit Temperatur Niederschläge Wind Luftdruck Luftfeuchtigkeit
    00:00 -6°C° 0 mm 1 m/S 747 mmHg 78%
    01:00 -6°C° 0 mm 1 m/S 747 mmHg 79%
    02:00 -6°C° 0 mm 1 m/S 747 mmHg 79%
    03:00 -6°C° 0 mm 1 m/S 747 mmHg 79%
    04:00 -7°C° 0 mm 2 m/S 747 mmHg 81%
    05:00 -7°C° 0 mm 2 m/S 747 mmHg 82%
    06:00 -7°C° 0 mm 2 m/S 747 mmHg 83%
    07:00 -7°C° 0 mm 3 m/S 747 mmHg 82%
    08:00 -6°C° 0 mm 3 m/S 747 mmHg 81%
    09:00 -7°C° 0 mm 4 m/S 747 mmHg 79%
    10:00 -4°C° 0 mm 4 m/S 746 mmHg 75%
    11:00 -2°C° 0 mm 5 m/S 745 mmHg 71%
    12:00 -2°C° 0 mm 6 m/S 745 mmHg 67%
    13:00 -1°C° 0 mm 6 m/S 744 mmHg 65%
    14:00 +1°C° 0 mm 6 m/S 743 mmHg 62%
    15:00 +2°C° 0 mm 6 m/S 742 mmHg 60%
    16:00 +2°C° 0 mm 6 m/S 742 mmHg 64%
    17:00 +1°C° 0 mm 5 m/S 742 mmHg 68%
    18:00 0°C° 0 mm 5 m/S 742 mmHg 72%
    19:00 0°C° 0 mm 5 m/S 741 mmHg 73%
    20:00 0°C° 0 mm 5 m/S 741 mmHg 75%
    21:00 0°C° 0 mm 5 m/S 741 mmHg 76%
    22:00 0°C° 0 mm 5 m/S 741 mmHg 77%
    23:00 0°C° 0 mm 5 m/S 741 mmHg 79%
    Mehr zeigen